Location: Newark
(23.1300°N, 73.6109°E)
Time: 04:13:59
(UTC+00:00)

NOAA 18 - Pass Details

Date: 20 June 2021
Orbit: 840 x 861 km, 99.0° (Epoch: 27 July)

Event Time Altitude Azimuth Distance (km) Brightness Sun altitude
Exits shadow 15:19:40 13° 74° (ENE) 2,286 7.1 -17.7°
Maximum altitude 15:20:13 13° 68° (ENE) 2,275 7.1 -17.8°
Drops below altitude 10° 15:22:36 10° 42° (NE) 2,488 7.6 -18.3°
Sets 15:26:22 0° 16° (NNE) 3,431 8.7 -19.0°
